Current weather by "City, St" or "zip code"  
 

Current Conditions: Houghton County Memorial Airport, MI

Overcast


28.0 F

Last Updated on Oct 29 2020, 8:53 pm EDT
Humidity: 58%
Wind Speed: NE 4.6 mph
Barometer 30.12 in
Dewpoint: 15.1 F
Visibility: 10.00 mi
Precip: --
Heat Index: NA
Wind Chill: 23 F
Current conditions at:

Houghton County Memorial Airport, MI (KCMX)

Lat: 47.16597 Lon: 88.48072

Local Radar Image active severe weather and emergency alerts image image weather storm and storm spotter reports image weather observation monitoring service image
Local
Radar
Active
Alerts
Storm Reports Obs
Monitoring

Sign-up For Email & Text Message Weather Alert Notification Services



Advertise Here

Observation History for Houghton County Memorial Airport, MI


Time Wind
(mph)
Vis
(mi)
Weather Precip (in) Temperature (F) Relative
Humidity
Wind
Chill
(F)
Heat
Index
(F)
Pressure
Air Dwpt altimeter
(in)
sea level
(mb)
Rmks
8:53 pm EDT NE 4.6 10.00 Overcast -- 28.0 15.1 58% 23 NA 30.12 1021.3
7:53 pm EDT NE 4.6 10.00 Overcast -- 28.0 16.0 60% 23 NA 30.11 1021.1
6:53 pm EDT N 4.6 10.00 Overcast -- 28.0 16.0 60% 23 NA 30.11 1020.9
5:53 pm EDT NW 4.6 10.00 Overcast -- 29.0 16.0 58% 24 NA 30.10 1020.7
4:53 pm EDT N 5.8 10.00 Overcast -- 30.0 15.1 54% 24 NA 30.09 1020.3
3:53 pm EDT N 5.8 10.00 Overcast -- 30.0 15.1 54% 24 NA 30.09 1020.3
2:53 pm EDT NE 8.1 10.00 Overcast -- 29.0 16.0 58% 21 NA 30.10 1020.7
1:53 pm EDT E 5.8 10.00 Overcast -- 29.0 18.0 63% 23 NA 30.12 1021.3
12:53 pm EDT N 6.9 10.00 Overcast -- 30.0 18.0 61% 23 NA 30.12 1021.4
11:53 am EDT NE 6.9 10.00 Overcast -- 30.0 18.0 61% 23 NA 30.12 1021.5
10:53 am EDT NE 11.5 10.00 Overcast -- 30.0 19.0 64% 20 NA 30.13 1021.6
9:53 am EDT NE 8.1 10.00 Overcast -- 31.0 19.9 64% 24 NA 30.12 1021.1
8:53 am EDT N 12.7 10.00 Overcast -- 32.0 21.9 66% 22 NA 30.08 1019.9
7:53 am EDT N 9.2 10.00 Overcast -- 32.0 21.9 66% 24 NA 30.06 1019.1
6:53 am EDT N 8.1 10.00 Overcast -- 32.0 21.9 66% 25 NA 30.05 1018.8
5:53 am EDT N 9.2 10.00 Overcast -- 33.0 21.9 64% 25 NA 30.04 1018.7
4:53 am EDT N 5.8 10.00 Overcast -- 33.0 23.0 66% 28 NA 30.04 1018.5
3:53 am EDT N 9.2 10.00 Overcast -- 33.0 24.1 70% 25 NA 30.04 1018.4
1:53 am EDT N 9.2 10.00 Overcast -- 34.0 27.0 76% 27 NA 30.01 1017.4
12:53 am EDT N 9.2 G 18.4 10.00 Overcast Trace 34.0 28.0 79% 27 NA 30.00 1017.1
11:53 pm EDT N 11.5 G 20.7 10.00 Overcast Trace 35.0 28.9 78% 27 NA 29.99 1016.6
10:53 pm EDT N 12.7 G 26.5 4.00 Light Snow 00.01 36.0 30.9 82% 28 NA 29.95 1015.2
9:53 pm EDT N 6.9 10.00 Overcast 00.01 37.0 32.0 82% 32 NA 29.93 1014.5

Regional Weather Observation


Copper Harbor, MI (KP59)

NULL
28.0 F

Land O Lakes, Kings Land O Lakes Airport, WI (KLNL)

Overcast
27.0 F

Grand Marais, The Bay of Grand Marais, MN (KGNA)

NULL
28.0 F

Grand Marais/Cook County Airport, MN (KCKC)

Partly Cloudy
18.0 F

Marquette, Sawyer International Airport, MI (KSAW)

Overcast
28.0 F

Manitowish Waters Airport, WI (KD25)

NULL
28.0 F